DW9580 Weather Reports


time (UTC)temp
F
wind
direction
speed
knots
gust
knots
rain 1hr
in
rain 24hr
in
rain mn
in
humidity
%
barometer
mb
20260506232706 46 336 0.9 2.6 0.00 0.09 0.00 78 1010.4
20260506231705 46 336 0.9 3.5 0.00 0.09 0.00 78 1010.4
20260506231205 46 336 0.9 3.5 0.00 0.09 0.00 78 1010.4
20260506230705 46 336 0.0 0.9 0.00 0.09 0.00 78 1010.3
20260506230234 46 336 0.0 4.3 0.00 0.09 0.00 78 1010.3
20260506225705 46 336 0.9 4.3 0.00 0.09 0.00 78 1010.3
20260506225204 46 336 1.7 4.3 0.00 0.09 0.00 78 1010.3
20260506224705 46 336 1.7 4.3 0.00 0.09 0.00 78 1010.2
20260506224230 46 336 2.6 4.3 0.00 0.09 0.00 78 1010.2
20260506223705 46 336 1.7 3.5 0.01 0.09 0.00 78 1010.1
20260506223206 46 336 1.7 7.0 0.01 0.09 0.00 78 1010.0
20260506222706 46 336 2.6 7.0 0.01 0.09 0.00 78 1010.0
20260506221706 46 336 1.7 5.2 0.01 0.09 0.00 78 1009.9
20260506220209 46 333 0.9 4.3 0.01 0.09 0.09 78 1009.7
20260506215705 46 333 1.7 4.3 0.01 0.10 0.09 78 1009.6
20260506215205 46 333 1.7 5.2 0.01 0.10 0.09 78 1009.5
20260506214705 47 333 1.7 5.2 0.01 0.10 0.09 78 1009.5
20260506214206 47 333 1.7 5.2 0.01 0.10 0.09 78 1009.5
20260506213705 47 333 1.7 5.2 0.00 0.09 0.09 78 1009.4
20260506213205 47 333 1.7 4.3 0.00 0.09 0.09 78 1009.3
20260506212707 47 333 1.7 5.2 0.00 0.09 0.09 78 1009.3
20260506212206 47 333 1.7 5.2 0.00 0.09 0.09 78 1009.4
20260506211205 47 333 0.9 3.5 0.00 0.09 0.09 78 1009.3
20260506210206 47 333 0.9 4.3 0.00 0.09 0.09 78 1009.4
20260506205705 47 333 0.9 4.3 0.00 0.09 0.09 78 1009.3
20260506205205 47 333 1.7 3.5 0.00 0.09 0.09 78 1009.3
20260506204707 47 333 0.9 4.3 0.00 0.10 0.09 78 1009.3
20260506204205 47 333 0.9 4.3 0.00 0.10 0.09 78 1009.3
20260506203706 47 333 1.7 4.3 0.00 0.10 0.09 78 1009.3
20260506203205 46 333 1.7 4.3 0.00 0.10 0.09 78 1009.3
20260506202706 46 333 1.7 3.5 0.00 0.10 0.09 78 1009.3
20260506202205 46 333 0.9 3.5 0.00 0.10 0.09 78 1009.3
20260506201705 46 333 0.9 3.5 0.00 0.10 0.09 78 1009.3
20260506201205 46 333 0.9 3.5 0.00 0.10 0.09 78 1009.2
20260506200706 46 333 0.9 3.5 0.00 0.10 0.09 78 1009.2
20260506200232 46 333 0.9 4.3 0.00 0.10 0.09 78 1009.1
20260506195705 46 333 0.9 4.3 0.00 0.10 0.09 78 1009.1
20260506194706 46 333 0.9 4.3 0.00 0.10 0.09 78 1009.0
20260506194205 46 333 1.7 4.3 0.00 0.10 0.09 78 1009.0
20260506193705 46 333 0.9 4.3 0.00 0.10 0.09 78 1009.0
20260506193206 46 333 1.7 4.3 0.00 0.11 0.09 78 1008.9
20260506192205 46 333 1.7 4.3 0.00 0.11 0.09 78 1008.9
20260506191705 46 333 1.7 4.3 0.00 0.11 0.09 78 1008.8
20260506191205 46 333 1.7 5.2 0.00 0.11 0.09 78 1008.7
20260506190206 47 333 0.9 3.5 0.00 0.11 0.09 78 1008.6
20260506185705 47 338 0.9 3.5 0.01 0.11 0.09 78 1008.6
20260506185205 47 338 0.9 3.5 0.01 0.11 0.09 78 1008.6
20260506184705 47 338 0.9 3.5 0.01 0.11 0.09 78 1008.5
20260506183705 47 338 1.7 3.5 0.01 0.11 0.09 78 1008.5
20260506182205 47 338 0.9 4.3 0.01 0.11 0.09 78 1008.4
20260506181707 47 338 1.7 4.3 0.01 0.11 0.09 78 1008.3
20260506181205 47 338 1.7 7.0 0.01 0.11 0.09 78 1008.3
20260506180706 47 338 1.7 7.0 0.01 0.11 0.09 78 1008.2
20260506175705 47 338 1.7 4.3 0.00 0.10 0.08 78 1008.1
20260506174205 47 338 0.9 4.3 0.00 0.10 0.08 78 1007.9
20260506173707 47 338 0.9 4.3 0.00 0.10 0.08 78 1007.9
20260506173205 47 338 0.9 3.5 0.00 0.10 0.08 78 1007.8
20260506172705 47 338 0.9 3.5 0.00 0.10 0.08 78 1007.8
20260506172205 47 338 0.9 5.2 0.00 0.10 0.08 78 1007.7
20260506171705 47 338 1.7 5.2 0.00 0.10 0.08 78 1007.6
20260506171205 47 337 1.7 5.2 0.00 0.10 0.08 78 1007.6
20260506170706 47 336 1.7 4.3 0.00 0.10 0.08 78 1007.7
20260506170207 47 336 1.7 5.2 0.00 0.10 0.08 78 1007.7
20260506165706 47 336 2.6 5.2 0.01 0.10 0.08 78 1007.7
20260506165205 47 336 1.7 5.2 0.01 0.10 0.08 78 1007.6
20260506164706 47 336 0.9 3.5 0.01 0.10 0.08 78 1007.7
20260506164205 47 336 0.9 5.2 0.01 0.10 0.08 78 1007.6
20260506163705 47 336 1.7 5.2 0.01 0.10 0.08 78 1007.6
20260506163210 47 336 2.6 5.2 0.01 0.10 0.08 78 1007.5
20260506162705 47 336 2.6 4.3 0.01 0.10 0.08 78 1007.6
20260506162213 47 336 1.7 4.3 0.01 0.10 0.08 78 1007.5
20260506161707 47 336 1.7 4.3 0.01 0.10 0.08 78 1007.5
20260506160705 47 336 1.7 5.2 0.01 0.10 0.08 78 1007.4
20260506160237 47 336 2.6 5.2 0.01 0.10 0.08 78 1007.4
20260506155705 47 336 2.6 5.2 0.00 0.09 0.07 78 1007.3
20260506155205 47 346 2.6 5.2 0.00 0.09 0.07 78 1007.3
20260506154205 47 347 1.7 5.2 0.00 0.09 0.07 78 1007.2
20260506153705 47 347 1.7 5.2 0.00 0.09 0.07 78 1007.2
20260506153205 47 351 1.7 7.0 0.00 0.09 0.07 78 1007.1
20260506152705 47 351 2.6 7.0 0.00 0.09 0.07 78 1007.2
20260506152206 47 351 1.7 7.0 0.00 0.09 0.07 78 1007.2
20260506151705 47 355 1.7 3.5 0.00 0.09 0.07 78 1007.2
20260506151205 47 342 1.7 4.3 0.00 0.09 0.07 78 1007.2
20260506150705 47 342 1.7 4.3 0.00 0.09 0.07 78 1007.2
20260506145706 47 342 0.9 4.3 0.00 0.09 0.07 78 1007.2
20260506145206 47 342 0.9 4.3 0.00 0.09 0.07 78 1007.2
20260506144705 47 342 0.9 5.2 0.00 0.09 0.07 78 1007.1
20260506144209 47 342 1.7 5.2 0.00 0.09 0.07 78 1007.1
20260506143705 47 342 1.7 5.2 0.00 0.09 0.07 78 1007.1
20260506143205 47 342 2.6 5.2 0.00 0.09 0.07 78 1007.1
20260506142706 47 346 1.7 5.2 0.00 0.09 0.07 78 1007.1
20260506141705 47 348 1.7 5.2 0.00 0.09 0.07 78 1007.1
20260506140706 47 348 1.7 5.2 0.00 0.09 0.07 78 1007.1
20260506140205 47 346 0.9 4.3 0.00 0.09 0.07 78 1007.1
20260506135705 47 346 1.7 5.2 0.00 0.09 0.07 78 1007.1
20260506135205 47 346 1.7 5.2 0.00 0.09 0.07 78 1007.1
20260506134705 47 346 1.7 5.2 0.00 0.09 0.07 78 1007.1
20260506134205 47 348 1.7 7.0 0.00 0.09 0.07 78 1007.1
20260506133707 47 348 2.6 7.0 0.01 0.09 0.07 78 1007.1
20260506133205 47 348 2.6 7.0 0.01 0.09 0.07 78 1007.1
20260506132705 47 351 2.6 6.1 0.01 0.09 0.07 78 1007.1
20260506132206 47 355 2.6 7.8 0.01 0.09 0.07 78 1007.0
20260506131705 47 355 3.5 8.7 0.01 0.09 0.07 78 1006.9
20260506131208 47 5 3.5 8.7 0.01 0.09 0.07 78 1006.9
20260506130704 47 5 2.6 8.7 0.01 0.09 0.07 78 1006.9
20260506130233 47 326 2.6 5.2 0.01 0.09 0.07 78 1006.9
20260506125705 47 327 1.7 8.7 0.01 0.09 0.07 78 1006.8
20260506125205 47 325 2.6 8.7 0.01 0.09 0.07 78 1006.7
20260506124707 47 326 3.5 8.7 0.01 0.09 0.07 78 1006.7
20260506124205 47 324 3.5 7.8 0.00 0.09 0.06 78 1006.7
20260506123205 48 339 2.6 7.8 0.00 0.09 0.06 78 1006.5
20260506122205 47 339 3.5 8.7 0.00 0.09 0.06 78 1006.5
20260506121206 48 342 2.6 8.7 0.00 0.09 0.06 78 1006.3
20260506120705 48 340 3.5 8.7 0.00 0.09 0.06 78 1006.4
20260506120205 48 340 3.5 8.7 0.00 0.09 0.06 78 1006.3
20260506114711 49 317 1.7 7.0 0.00 0.09 0.06 78 1006.1
20260506114206 49 318 1.7 7.8 0.00 0.09 0.06 78 1006.1
20260506113705 48 318 2.6 7.8 0.01 0.09 0.06 78 1006.0
20260506113205 48 314 2.6 7.8 0.01 0.09 0.06 78 1006.1
20260506112706 49 311 2.6 7.8 0.01 0.09 0.06 78 1006.1
20260506111705 49 323 2.6 7.8 0.01 0.09 0.06 78 1006.0
20260506111205 49 315 2.6 5.2 0.01 0.09 0.06 78 1006.0
20260506110706 49 328 1.7 5.2 0.01 0.09 0.06 78 1006.0
20260506110205 49 329 2.6 4.3 0.01 0.09 0.06 78 1006.0
20260506105705 49 329 2.6 5.2 0.01 0.09 0.06 78 1006.0
20260506105205 49 328 1.7 7.0 0.01 0.09 0.06 78 1006.0
20260506104706 49 328 1.7 7.0 0.01 0.09 0.06 78 1006.0
20260506104205 48 328 2.6 5.2 0.00 0.08 0.06 78 1006.0
20260506103705 48 331 2.6 5.2 0.00 0.08 0.06 77 1006.0
20260506103207 48 327 2.6 7.0 0.00 0.08 0.06 78 1005.9
20260506102205 49 326 2.6 7.0 0.00 0.08 0.06 78 1005.9
20260506101704 49 331 2.6 5.2 0.00 0.08 0.06 78 1005.9
20260506100705 49 333 1.7 5.2 0.00 0.08 0.06 77 1005.7
20260506100221 49 333 1.7 5.2 0.00 0.08 0.06 78 1005.7
20260506095206 49 333 1.7 7.0 0.00 0.08 0.06 78 1005.6
20260506094705 48 331 2.6 7.0 0.00 0.08 0.06 77 1005.6
20260506094206 48 331 2.6 5.2 0.00 0.08 0.06 77 1005.7
20260506093705 48 335 2.6 5.2 0.00 0.08 0.06 77 1005.6
20260506093205 48 336 1.7 7.0 0.00 0.08 0.06 77 1005.6
20260506092705 48 336 1.7 7.0 0.00 0.08 0.06 77 1005.6
20260506092209 48 336 1.7 7.0 0.00 0.08 0.06 77 1005.5
20260506091705 48 338 1.7 3.5 0.00 0.08 0.06 77 1005.4
20260506091205 48 340 1.7 7.0 0.00 0.08 0.06 77 1005.4
20260506090705 48 340 1.7 7.0 0.00 0.08 0.06 77 1005.5
20260506090205 48 340 1.7 7.8 0.00 0.08 0.06 77 1005.5
20260506085705 48 339 1.7 7.8 0.00 0.08 0.06 78 1005.4
20260506085205 48 339 1.7 7.0 0.01 0.08 0.06 78 1005.4
20260506084705 48 340 1.7 7.0 0.01 0.08 0.06 78 1005.3
20260506083207 48 340 2.6 5.2 0.01 0.08 0.06 77 1005.2
20260506082205 48 340 1.7 4.3 0.01 0.08 0.06 77 1005.1
20260506081705 48 340 1.7 7.8 0.01 0.08 0.06 77 1005.0
20260506080705 48 340 2.6 8.7 0.01 0.08 0.06 77 1005.0
20260506080206 48 335 2.6 8.7 0.01 0.08 0.06 77 1004.9
20260506073205 48 344 1.7 5.2 0.00 0.07 0.05 77 1004.7
20260506072705 48 343 1.7 5.2 0.00 0.07 0.05 77 1004.6
20260506072205 48 343 2.6 7.0 0.00 0.07 0.05 77 1004.6
20260506071705 48 343 2.6 7.0 0.00 0.07 0.05 77 1004.6
20260506071206 48 344 2.6 7.0 0.00 0.07 0.05 77 1004.6
20260506070705 48 342 2.6 7.0 0.01 0.07 0.05 77 1004.6
20260506070205 48 340 2.6 7.0 0.01 0.07 0.05 77 1004.6
20260506062205 48 331 0.9 3.5 0.01 0.07 0.05 78 1004.3
20260506061206 48 331 0.9 3.5 0.00 0.06 0.04 78 1004.3
20260506060706 48 331 0.9 4.3 0.00 0.06 0.04 78 1004.3
20260506060206 48 331 0.9 4.3 0.00 0.06 0.04 78 1004.1
20260506051205 47 331 0.9 2.6 0.00 0.06 0.04 78 1004.4
20260506050706 47 331 0.9 2.6 0.00 0.06 0.04 78 1004.4
20260506050205 47 331 0.9 3.5 0.01 0.06 0.04 78 1004.3
20260506044706 47 331 1.7 5.2 0.01 0.06 0.04 78 1004.3
20260506044205 47 331 1.7 4.3 0.01 0.06 0.04 78 1004.4
20260506043705 47 333 0.9 4.3 0.01 0.06 0.04 78 1004.4
20260506043205 47 333 0.9 3.5 0.01 0.06 0.04 78 1004.3
20260506042705 47 333 0.9 7.0 0.01 0.06 0.04 78 1004.4
20260506042205 47 333 1.7 7.0 0.01 0.06 0.04 78 1004.3
20260506041705 47 333 1.7 7.0 0.01 0.06 0.04 78 1004.3
20260506041212 47 340 0.9 4.3 0.01 0.06 0.04 78 1004.3
20260506040705 47 340 0.9 4.3 0.01 0.06 0.04 78 1004.3
20260506040232 47 340 1.7 7.0 0.00 0.06 0.03 78 1004.3
20260506035705 47 340 1.7 7.0 0.00 0.06 0.03 78 1004.4
20260506035205 47 340 1.7 7.0 0.00 0.06 0.03 78 1004.4
20260506034705 47 342 1.7 4.3 0.01 0.06 0.03 78 1004.4
20260506033706 47 344 1.7 4.3 0.01 0.06 0.03 78 1004.4
20260506032705 48 343 0.9 4.3 0.01 0.06 0.03 78 1004.5
20260506031708 48 343 1.7 5.2 0.01 0.06 0.03 78 1004.5
20260506031205 48 344 1.7 5.2 0.01 0.06 0.03 78 1004.5
20260506030705 48 344 1.7 4.3 0.01 0.06 0.03 78 1004.5
20260506030205 48 344 0.9 5.2 0.01 0.06 0.03 78 1004.6
20260506025705 48 344 0.9 5.2 0.01 0.06 0.03 78 1004.6
20260506025206 48 344 1.7 7.0 0.00 0.05 0.02 78 1004.7
20260506024705 48 343 1.7 7.0 0.00 0.05 0.02 78 1004.7
20260506024205 48 343 1.7 7.0 0.00 0.05 0.02 78 1004.7
20260506023705 48 342 1.7 3.5 0.00 0.05 0.02 78 1004.7
20260506023207 48 342 0.9 3.5 0.00 0.06 0.02 78 1004.8
20260506022705 48 342 1.7 3.5 0.00 0.06 0.02 78 1004.8
20260506022205 48 342 1.7 7.0 0.00 0.06 0.02 78 1004.8
20260506021705 48 342 1.7 7.0 0.00 0.06 0.02 78 1004.8
20260506021205 48 342 1.7 7.0 0.01 0.06 0.02 78 1004.8
20260506020705 48 347 1.7 4.3 0.01 0.06 0.02 78 1004.8
20260506020206 48 347 1.7 4.3 0.01 0.06 0.02 78 1004.8
20260506015205 48 347 1.7 7.0 0.01 0.06 0.02 78 1004.9
20260506014705 48 347 1.7 7.0 0.01 0.06 0.02 78 1004.9
20260506014206 48 347 2.6 4.3 0.01 0.06 0.02 78 1004.9
20260506013705 48 346 1.7 4.3 0.01 0.06 0.02 78 1004.9
20260506013206 48 346 2.6 4.3 0.01 0.06 0.02 78 1005.0
20260506012705 48 346 2.6 7.8 0.01 0.06 0.02 78 1005.0
20260506012205 48 346 1.7 7.8 0.01 0.06 0.02 78 1005.0
20260506011705 48 346 1.7 5.2 0.00 0.05 0.02 78 1005.0
20260506011205 48 345 2.6 5.2 0.01 0.05 0.02 78 1005.1
20260506010706 48 344 1.7 5.2 0.01 0.05 0.02 78 1005.1
20260506010205 48 344 1.7 5.2 0.01 0.05 0.02 78 1005.1
20260506005207 49 344 1.7 5.2 0.01 0.05 0.02 78 1005.2
20260506004705 48 343 2.6 5.2 0.01 0.05 0.02 78 1005.2
20260506004206 49 343 1.7 5.2 0.01 0.05 0.02 78 1005.2
20260506003205 49 342 1.7 7.8 0.01 0.05 0.02 78 1005.3
20260506002706 49 342 1.7 7.8 0.01 0.05 0.02 78 1005.3
20260506001705 49 350 1.7 5.2 0.00 0.04 0.01 78 1005.4
20260506001209 49 0 1.7 5.2 0.00 0.04 0.01 78 1005.4
20260506000706 49 0 1.7 3.5 0.00 0.04 0.01 78 1005.5
20260505235705 49 0 1.7 4.3 0.00 0.04 0.01 78 1005.6
20260505235205 49 0 1.7 4.3 0.01 0.04 0.01 78 1005.7
20260505234706 49 0 1.7 4.3 0.01 0.04 0.01 78 1005.7
20260505233205 49 0 1.7 5.2 0.01 0.04 0.01 78 1005.8